User: anonymous   Login
Location: Unspecified
(0.0000°N, 0.0000°E)
Time: 03:36:22
(UTC+00:00)
Language:

USA 257 - Orbit

View from above orbital plane
View from above orbital plane
View from above satellite
View from above satellite

Ground track
Ground track

The orbit data is extracted from the following two-line orbital elements,

1 40208U 14055A   17165.10224828 0.00000000  00000-0  00000-0 0    09
2 40208   0.0980 357.9799 0017360 332.8703  27.1297  1.00256180    06
Epoch (UTC): 14 June 2017 02:27:14
Eccentricity: 0.0017360
inclination: 0.0980°
perigee height: 35717 km
apogee height: 35864 km
right ascension of ascending node: 357.9799°
argument of perigee: 332.8703°
revolutions per day: 1.00256180
mean anomaly at epoch: 27.1297°
orbit number at epoch: 0

The dashed part of the orbit path shows where the satellite is in the earth's shadow,  

DLR